Information on these data can be found in provided Readme document
Contact Info: Zachary Fasnacht (zachary.fasnacht@ssaihq.com); Nickolay Krotkov (nickolay.a.krotkov@nasa.gov); Lok Lamsal (lok.lamsal@nasa.gov)

FillValue: -999.
ScaleFactor: 1e15
Units: molecules/cm^2

Date(yyyy-mm-dd),City,Country,LonCenter,LatCenter,BoundingCoordinates,Median,Q1,Q3,Mean,Baseline_Median,Baseline_Q1,Baseline_Q3,Baseline_Mean,NumGoodSamples,NumTotalSamples
2015-01-01,Helsinki,Finland,25.0001,60.1667,[24.5001 59.6667 25.5001 60.6667],0.809,-1.265,2.486,0.999,0.998,-0.566,2.345,1.073,62.0,723.0
2015-01-02,Helsinki,Finland,25.0001,60.1667,[24.5001 59.6667 25.5001 60.6667],1.366,0.35,3.379,1.787,1.156,-0.237,2.443,1.22,54.0,704.0
2015-01-03,Helsinki,Finland,25.0001,60.1667,[24.5001 59.6667 25.5001 60.6667],1.404,0.35,3.379,1.82,1.015,-0.036,2.258,1.138,56.0,763.0
2015-01-04,Helsinki,Finland,25.0001,60.1667,[24.5001 59.6667 25.5001 60.6667],1.477,0.35,3.379,1.855,0.731,-0.294,1.904,0.863,45.0,750.0
2015-01-05,Helsinki,Finland,25.0001,60.1667,[24.5001 59.6667 25.5001 60.6667],2.365,0.779,3.899,2.269,0.816,-0.236,2.787,1.253,50.0,718.0
2015-01-06,Helsinki,Finland,25.0001,60.1667,[24.5001 59.6667 25.5001 60.6667],2.486,0.779,3.899,2.424,0.821,-0.252,2.759,1.283,47.0,723.0
2015-01-07,Helsinki,Finland,25.0001,60.1667,[24.5001 59.6667 25.5001 60.6667],2.486,0.809,3.899,2.544,0.828,-0.329,2.83,1.298,49.0,704.0
2015-01-08,Helsinki,Finland,25.0001,60.1667,[24.5001 59.6667 25.5001 60.6667],2.486,0.809,3.899,2.553,0.857,-0.292,2.684,1.28,51.0,726.0
2015-01-09,Helsinki,Finland,25.0001,60.1667,[24.5001 59.6667 25.5001 60.6667],2.486,0.809,3.899,2.553,0.611,-0.374,2.282,1.015,51.0,699.0
2015-01-10,Helsinki,Finland,25.0001,60.1667,[24.5001 59.6667 25.5001 60.6667],2.486,0.809,3.899,2.553,0.62,-0.337,2.294,1.025,51.0,653.0
2015-01-11,Helsinki,Finland,25.0001,60.1667,[24.5001 59.6667 25.5001 60.6667],2.486,0.809,3.899,2.553,0.847,-0.32,2.432,1.132,51.0,649.0
2015-01-12,Helsinki,Finland,25.0001,60.1667,[24.5001 59.6667 25.5001 60.6667],2.486,0.809,3.899,2.553,0.891,-0.24,2.672,1.229,51.0,652.0
2015-01-13,Helsinki,Finland,25.0001,60.1667,[24.5001 59.6667 25.5001 60.6667],2.486,0.779,3.132,2.457,0.779,-0.281,2.336,1.163,17.0,655.0
2015-01-14,Helsinki,Finland,25.0001,60.1667,[24.5001 59.6667 25.5001 60.6667],3.132,2.651,5.028,3.929,0.969,-0.038,2.676,1.408,15.0,654.0
2015-01-15,Helsinki,Finland,25.0001,60.1667,[24.5001 59.6667 25.5001 60.6667],3.132,2.651,5.028,3.929,1.209,0.033,3.264,1.634,15.0,653.0
2015-01-16,Helsinki,Finland,25.0001,60.1667,[24.5001 59.6667 25.5001 60.6667],3.132,2.365,5.028,3.859,1.231,0.071,3.115,1.725,16.0,638.0
2015-01-17,Helsinki,Finland,25.0001,60.1667,[24.5001 59.6667 25.5001 60.6667],3.132,2.365,5.028,3.859,1.197,0.273,3.014,1.607,16.0,655.0
2015-01-18,Helsinki,Finland,25.0001,60.1667,[24.5001 59.6667 25.5001 60.6667],3.132,2.365,5.028,3.831,1.15,0.223,2.879,1.525,14.0,636.0
2015-01-19,Helsinki,Finland,25.0001,60.1667,[24.5001 59.6667 25.5001 60.6667],3.132,2.365,5.028,3.831,1.253,0.097,3.046,1.605,14.0,670.0
2015-01-20,Helsinki,Finland,25.0001,60.1667,[24.5001 59.6667 25.5001 60.6667],2.661,0.871,5.028,3.542,1.116,0.023,2.63,1.355,9.0,692.0
2015-01-21,Helsinki,Finland,25.0001,60.1667,[24.5001 59.6667 25.5001 60.6667],2.661,0.871,5.028,3.542,1.058,0.041,2.643,1.346,9.0,684.0
2015-01-22,Helsinki,Finland,25.0001,60.1667,[24.5001 59.6667 25.5001 60.6667],2.651,0.871,5.028,2.713,0.948,-0.085,2.366,1.205,7.0,688.0
2015-01-23,Helsinki,Finland,25.0001,60.1667,[24.5001 59.6667 25.5001 60.6667],2.639,0.871,4.161,2.637,0.975,0.002,2.47,1.255,12.0,669.0
2015-01-24,Helsinki,Finland,25.0001,60.1667,[24.5001 59.6667 25.5001 60.6667],2.639,0.871,4.161,2.637,1.291,0.294,2.526,1.649,12.0,689.0
2015-01-25,Helsinki,Finland,25.0001,60.1667,[24.5001 59.6667 25.5001 60.6667],2.639,0.871,4.161,2.637,1.31,0.3,2.373,1.646,12.0,729.0
2015-01-26,Helsinki,Finland,25.0001,60.1667,[24.5001 59.6667 25.5001 60.6667],2.639,0.871,4.161,2.637,1.228,0.345,2.118,1.618,12.0,755.0
2015-01-27,Helsinki,Finland,25.0001,60.1667,[24.5001 59.6667 25.5001 60.6667],2.639,0.871,4.161,2.637,0.982,0.281,2.139,1.49,12.0,745.0
2015-01-28,Helsinki,Finland,25.0001,60.1667,[24.5001 59.6667 25.5001 60.6667],2.639,0.871,4.161,2.637,0.926,0.448,2.084,1.517,12.0,748.0
2015-01-29,Helsinki,Finland,25.0001,60.1667,[24.5001 59.6667 25.5001 60.6667],1.966,0.473,3.47,2.001,1.05,0.322,2.078,1.308,10.0,748.0
2015-01-30,Helsinki,Finland,25.0001,60.1667,[24.5001 59.6667 25.5001 60.6667],2.639,0.663,3.728,2.343,1.112,0.337,1.969,1.24,22.0,749.0
2015-01-31,Helsinki,Finland,25.0001,60.1667,[24.5001 59.6667 25.5001 60.6667],2.639,0.663,3.728,2.357,1.422,0.365,2.77,1.51,21.0,752.0
2015-02-01,Helsinki,Finland,25.0001,60.1667,[24.5001 59.6667 25.5001 60.6667],2.639,0.663,3.728,2.357,1.707,0.419,2.947,1.762,21.0,739.0
2015-02-02,Helsinki,Finland,25.0001,60.1667,[24.5001 59.6667 25.5001 60.6667],2.639,0.663,3.728,2.357,1.941,0.832,3.218,2.028,21.0,757.0
2015-02-03,Helsinki,Finland,25.0001,60.1667,[24.5001 59.6667 25.5001 60.6667],1.962,1.096,3.47,2.19,1.805,0.829,3.188,1.996,36.0,735.0
2015-02-04,Helsinki,Finland,25.0001,60.1667,[24.5001 59.6667 25.5001 60.6667],2.639,1.174,3.47,2.438,1.743,0.863,2.866,1.954,48.0,758.0
2015-02-05,Helsinki,Finland,25.0001,60.1667,[24.5001 59.6667 25.5001 60.6667],2.328,1.103,3.441,2.334,1.675,0.847,2.834,1.917,50.0,763.0
2015-02-06,Helsinki,Finland,25.0001,60.1667,[24.5001 59.6667 25.5001 60.6667],2.325,1.103,3.441,2.31,1.85,0.884,3.011,2.01,51.0,757.0
2015-02-07,Helsinki,Finland,25.0001,60.1667,[24.5001 59.6667 25.5001 60.6667],2.325,1.096,3.156,2.281,1.879,1.016,3.162,2.167,44.0,761.0
2015-02-08,Helsinki,Finland,25.0001,60.1667,[24.5001 59.6667 25.5001 60.6667],2.061,1.145,3.156,2.255,1.957,1.053,3.269,2.245,64.0,745.0
2015-02-09,Helsinki,Finland,25.0001,60.1667,[24.5001 59.6667 25.5001 60.6667],2.389,1.356,3.078,2.341,2.227,1.213,3.363,2.395,78.0,768.0
2015-02-10,Helsinki,Finland,25.0001,60.1667,[24.5001 59.6667 25.5001 60.6667],2.328,1.193,3.078,2.305,2.1,1.171,3.271,2.329,94.0,738.0
2015-02-11,Helsinki,Finland,25.0001,60.1667,[24.5001 59.6667 25.5001 60.6667],2.328,1.193,3.078,2.305,2.041,1.171,3.209,2.297,94.0,696.0
2015-02-12,Helsinki,Finland,25.0001,60.1667,[24.5001 59.6667 25.5001 60.6667],2.325,1.174,3.071,2.271,2.092,1.168,3.225,2.321,97.0,686.0
2015-02-13,Helsinki,Finland,25.0001,60.1667,[24.5001 59.6667 25.5001 60.6667],2.328,1.193,3.078,2.305,2.126,1.193,3.222,2.352,95.0,688.0
2015-02-14,Helsinki,Finland,25.0001,60.1667,[24.5001 59.6667 25.5001 60.6667],2.325,1.294,3.071,2.272,2.134,1.204,3.449,2.449,83.0,691.0
2015-02-15,Helsinki,Finland,25.0001,60.1667,[24.5001 59.6667 25.5001 60.6667],2.325,1.294,3.071,2.272,2.212,1.236,3.285,2.416,83.0,690.0
2015-02-16,Helsinki,Finland,25.0001,60.1667,[24.5001 59.6667 25.5001 60.6667],2.325,1.294,3.071,2.272,2.218,1.089,3.173,2.36,83.0,689.0
2015-02-17,Helsinki,Finland,25.0001,60.1667,[24.5001 59.6667 25.5001 60.6667],2.325,1.294,3.071,2.272,2.094,1.103,2.999,2.273,83.0,677.0
2015-02-18,Helsinki,Finland,25.0001,60.1667,[24.5001 59.6667 25.5001 60.6667],2.389,1.356,3.071,2.319,2.114,1.072,3.012,2.25,69.0,698.0
2015-02-19,Helsinki,Finland,25.0001,60.1667,[24.5001 59.6667 25.5001 60.6667],2.061,1.193,2.972,2.138,2.041,1.071,3.054,2.215,57.0,676.0
2015-02-20,Helsinki,Finland,25.0001,60.1667,[24.5001 59.6667 25.5001 60.6667],2.207,1.294,2.979,2.241,2.026,1.107,3.03,2.219,56.0,690.0
2015-02-21,Helsinki,Finland,25.0001,60.1667,[24.5001 59.6667 25.5001 60.6667],2.207,1.294,2.979,2.263,1.867,1.077,2.925,2.141,55.0,693.0
2015-02-22,Helsinki,Finland,25.0001,60.1667,[24.5001 59.6667 25.5001 60.6667],2.207,1.294,2.979,2.263,1.835,0.981,2.723,2.053,55.0,686.0
2015-02-23,Helsinki,Finland,25.0001,60.1667,[24.5001 59.6667 25.5001 60.6667],2.445,1.341,2.979,2.298,1.908,0.944,2.817,2.028,35.0,688.0
2015-02-24,Helsinki,Finland,25.0001,60.1667,[24.5001 59.6667 25.5001 60.6667],1.294,0.657,3.014,2.032,1.635,0.817,2.503,1.828,23.0,671.0
2015-02-25,Helsinki,Finland,25.0001,60.1667,[24.5001 59.6667 25.5001 60.6667],0.905,0.465,3.701,1.877,1.691,0.843,2.54,1.862,7.0,694.0
2015-02-26,Helsinki,Finland,25.0001,60.1667,[24.5001 59.6667 25.5001 60.6667],0.62,0.044,0.956,1.172,1.503,0.841,2.338,1.782,11.0,734.0
2015-02-27,Helsinki,Finland,25.0001,60.1667,[24.5001 59.6667 25.5001 60.6667],0.62,-0.036,1.341,1.293,1.531,0.85,2.497,1.81,8.0,761.0
2015-02-28,Helsinki,Finland,25.0001,60.1667,[24.5001 59.6667 25.5001 60.6667],0.62,-0.036,1.341,1.293,1.739,0.889,2.812,1.98,8.0,756.0
2015-03-01,Helsinki,Finland,25.0001,60.1667,[24.5001 59.6667 25.5001 60.6667],0.457,-0.036,1.341,1.217,1.591,0.875,2.68,1.9,9.0,757.0
2015-03-02,Helsinki,Finland,25.0001,60.1667,[24.5001 59.6667 25.5001 60.6667],0.62,0.044,1.341,1.279,1.437,0.827,2.476,1.802,13.0,758.0
2015-03-03,Helsinki,Finland,25.0001,60.1667,[24.5001 59.6667 25.5001 60.6667],0.62,0.044,1.341,1.279,1.468,0.834,2.524,1.806,13.0,764.0
2015-03-04,Helsinki,Finland,25.0001,60.1667,[24.5001 59.6667 25.5001 60.6667],0.708,0.457,2.382,1.34,1.443,0.765,2.662,1.797,17.0,793.0
2015-03-05,Helsinki,Finland,25.0001,60.1667,[24.5001 59.6667 25.5001 60.6667],0.858,0.457,2.382,1.429,1.361,0.775,2.684,1.786,34.0,778.0
2015-03-06,Helsinki,Finland,25.0001,60.1667,[24.5001 59.6667 25.5001 60.6667],2.219,0.708,2.892,1.928,1.58,0.798,2.881,1.926,58.0,825.0
2015-03-07,Helsinki,Finland,25.0001,60.1667,[24.5001 59.6667 25.5001 60.6667],2.219,0.708,2.892,1.999,1.54,0.817,2.849,1.919,74.0,822.0
2015-03-08,Helsinki,Finland,25.0001,60.1667,[24.5001 59.6667 25.5001 60.6667],2.72,1.408,3.839,2.657,1.893,1.015,3.153,2.19,107.0,854.0
2015-03-09,Helsinki,Finland,25.0001,60.1667,[24.5001 59.6667 25.5001 60.6667],2.892,1.481,4.158,2.953,1.884,1.029,3.298,2.294,123.0,858.0
2015-03-10,Helsinki,Finland,25.0001,60.1667,[24.5001 59.6667 25.5001 60.6667],2.915,1.83,4.174,3.124,1.958,1.166,3.367,2.324,156.0,853.0
2015-03-11,Helsinki,Finland,25.0001,60.1667,[24.5001 59.6667 25.5001 60.6667],2.933,1.818,4.234,3.116,2.122,1.224,3.485,2.434,170.0,855.0
2015-03-12,Helsinki,Finland,25.0001,60.1667,[24.5001 59.6667 25.5001 60.6667],2.915,1.732,4.174,3.043,2.11,1.212,3.508,2.432,199.0,837.0
2015-03-13,Helsinki,Finland,25.0001,60.1667,[24.5001 59.6667 25.5001 60.6667],2.933,1.79,4.236,3.096,2.305,1.242,3.56,2.57,195.0,860.0
2015-03-14,Helsinki,Finland,25.0001,60.1667,[24.5001 59.6667 25.5001 60.6667],2.892,1.481,4.149,2.962,2.168,1.16,3.378,2.486,212.0,834.0
2015-03-15,Helsinki,Finland,25.0001,60.1667,[24.5001 59.6667 25.5001 60.6667],2.892,1.481,4.149,2.962,2.09,1.114,3.109,2.328,212.0,789.0
2015-03-16,Helsinki,Finland,25.0001,60.1667,[24.5001 59.6667 25.5001 60.6667],2.892,1.481,4.149,2.97,2.008,1.037,3.072,2.218,211.0,820.0
2015-03-17,Helsinki,Finland,25.0001,60.1667,[24.5001 59.6667 25.5001 60.6667],2.892,1.436,4.118,2.948,1.988,0.982,3.0,2.15,223.0,822.0
2015-03-18,Helsinki,Finland,25.0001,60.1667,[24.5001 59.6667 25.5001 60.6667],2.892,1.436,4.118,2.948,1.94,0.966,2.931,2.114,223.0,843.0
2015-03-19,Helsinki,Finland,25.0001,60.1667,[24.5001 59.6667 25.5001 60.6667],2.915,1.563,4.158,2.981,1.896,1.0,2.934,2.114,235.0,829.0
2015-03-20,Helsinki,Finland,25.0001,60.1667,[24.5001 59.6667 25.5001 60.6667],2.933,1.732,4.174,3.068,1.939,1.063,2.969,2.191,217.0,829.0
2015-03-21,Helsinki,Finland,25.0001,60.1667,[24.5001 59.6667 25.5001 60.6667],3.217,1.79,4.436,3.259,1.818,0.958,2.83,2.068,193.0,786.0
2015-03-22,Helsinki,Finland,25.0001,60.1667,[24.5001 59.6667 25.5001 60.6667],3.279,1.79,4.524,3.297,1.894,1.017,2.943,2.162,178.0,786.0
2015-03-23,Helsinki,Finland,25.0001,60.1667,[24.5001 59.6667 25.5001 60.6667],2.851,1.332,4.268,3.059,1.665,0.872,2.69,2.0,145.0,752.0
2015-03-24,Helsinki,Finland,25.0001,60.1667,[24.5001 59.6667 25.5001 60.6667],2.335,0.965,3.773,2.695,1.56,0.799,2.643,1.94,130.0,768.0
2015-03-25,Helsinki,Finland,25.0001,60.1667,[24.5001 59.6667 25.5001 60.6667],1.939,0.673,3.523,2.207,1.522,0.802,2.509,1.864,97.0,771.0
2015-03-26,Helsinki,Finland,25.0001,60.1667,[24.5001 59.6667 25.5001 60.6667],1.708,0.558,3.006,1.962,1.489,0.787,2.446,1.836,81.0,768.0
2015-03-27,Helsinki,Finland,25.0001,60.1667,[24.5001 59.6667 25.5001 60.6667],1.421,0.673,2.732,1.734,1.473,0.76,2.489,1.785,52.0,770.0
2015-03-28,Helsinki,Finland,25.0001,60.1667,[24.5001 59.6667 25.5001 60.6667],1.421,0.673,2.732,1.734,1.478,0.775,2.416,1.771,52.0,750.0
2015-03-29,Helsinki,Finland,25.0001,60.1667,[24.5001 59.6667 25.5001 60.6667],1.83,0.673,3.006,2.189,1.552,0.816,2.556,1.895,35.0,768.0
2015-03-30,Helsinki,Finland,25.0001,60.1667,[24.5001 59.6667 25.5001 60.6667],1.939,0.839,3.217,2.393,1.582,0.817,2.569,1.887,48.0,811.0
2015-03-31,Helsinki,Finland,25.0001,60.1667,[24.5001 59.6667 25.5001 60.6667],1.939,0.839,3.217,2.393,1.611,0.874,2.496,1.88,48.0,799.0
2015-04-01,Helsinki,Finland,25.0001,60.1667,[24.5001 59.6667 25.5001 60.6667],1.173,0.6,2.784,1.77,1.635,0.886,2.544,1.912,45.0,805.0
2015-04-02,Helsinki,Finland,25.0001,60.1667,[24.5001 59.6667 25.5001 60.6667],1.674,0.72,2.71,1.877,1.709,0.915,2.64,1.948,79.0,785.0
2015-04-03,Helsinki,Finland,25.0001,60.1667,[24.5001 59.6667 25.5001 60.6667],1.674,0.72,2.2,1.781,1.746,1.017,2.595,1.962,65.0,772.0
2015-04-04,Helsinki,Finland,25.0001,60.1667,[24.5001 59.6667 25.5001 60.6667],1.462,0.677,2.2,1.568,1.69,0.957,2.514,1.878,104.0,794.0
2015-04-05,Helsinki,Finland,25.0001,60.1667,[24.5001 59.6667 25.5001 60.6667],1.462,0.677,2.2,1.568,1.712,0.977,2.525,1.931,104.0,824.0
2015-04-06,Helsinki,Finland,25.0001,60.1667,[24.5001 59.6667 25.5001 60.6667],1.59,0.72,2.2,1.639,1.693,0.93,2.406,1.835,116.0,812.0
2015-04-07,Helsinki,Finland,25.0001,60.1667,[24.5001 59.6667 25.5001 60.6667],1.59,0.72,2.2,1.639,1.705,0.938,2.527,1.858,116.0,856.0
2015-04-08,Helsinki,Finland,25.0001,60.1667,[24.5001 59.6667 25.5001 60.6667],1.626,0.72,2.26,1.653,1.675,0.911,2.46,1.806,126.0,858.0
2015-04-09,Helsinki,Finland,25.0001,60.1667,[24.5001 59.6667 25.5001 60.6667],1.626,0.72,2.308,1.672,1.68,0.863,2.538,1.797,129.0,890.0
2015-04-10,Helsinki,Finland,25.0001,60.1667,[24.5001 59.6667 25.5001 60.6667],1.596,0.683,2.26,1.62,1.693,0.9,2.454,1.81,132.0,889.0
2015-04-11,Helsinki,Finland,25.0001,60.1667,[24.5001 59.6667 25.5001 60.6667],1.607,0.683,2.26,1.621,1.719,0.903,2.556,1.835,133.0,903.0
2015-04-12,Helsinki,Finland,25.0001,60.1667,[24.5001 59.6667 25.5001 60.6667],1.607,0.683,2.26,1.621,1.705,0.899,2.587,1.878,133.0,911.0
2015-04-13,Helsinki,Finland,25.0001,60.1667,[24.5001 59.6667 25.5001 60.6667],1.668,0.683,2.39,1.699,1.689,0.869,2.511,1.806,158.0,913.0
2015-04-14,Helsinki,Finland,25.0001,60.1667,[24.5001 59.6667 25.5001 60.6667],1.626,0.662,2.26,1.591,1.691,0.848,2.486,1.806,159.0,932.0
2015-04-15,Helsinki,Finland,25.0001,60.1667,[24.5001 59.6667 25.5001 60.6667],1.626,0.662,2.26,1.591,1.663,0.8,2.528,1.804,159.0,921.0
2015-04-16,Helsinki,Finland,25.0001,60.1667,[24.5001 59.6667 25.5001 60.6667],1.716,0.72,2.322,1.691,1.743,0.849,2.574,1.885,146.0,865.0
2015-04-17,Helsinki,Finland,25.0001,60.1667,[24.5001 59.6667 25.5001 60.6667],1.626,0.621,2.39,1.615,1.725,0.829,2.596,1.887,122.0,912.0
2015-04-18,Helsinki,Finland,25.0001,60.1667,[24.5001 59.6667 25.5001 60.6667],1.626,0.683,2.39,1.682,1.721,0.819,2.597,1.895,152.0,913.0
2015-04-19,Helsinki,Finland,25.0001,60.1667,[24.5001 59.6667 25.5001 60.6667],1.911,0.704,2.746,1.844,1.782,0.776,2.743,1.925,113.0,926.0
2015-04-20,Helsinki,Finland,25.0001,60.1667,[24.5001 59.6667 25.5001 60.6667],1.911,0.704,2.746,1.842,1.775,0.849,2.772,1.903,114.0,915.0
2015-04-21,Helsinki,Finland,25.0001,60.1667,[24.5001 59.6667 25.5001 60.6667],1.934,0.716,2.888,1.929,1.795,0.829,2.819,1.93,106.0,957.0
2015-04-22,Helsinki,Finland,25.0001,60.1667,[24.5001 59.6667 25.5001 60.6667],1.934,0.716,2.888,1.929,1.822,0.864,2.817,1.949,106.0,932.0
2015-04-23,Helsinki,Finland,25.0001,60.1667,[24.5001 59.6667 25.5001 60.6667],2.016,0.774,3.051,2.047,1.888,0.887,2.913,2.038,111.0,986.0
2015-04-24,Helsinki,Finland,25.0001,60.1667,[24.5001 59.6667 25.5001 60.6667],2.016,0.757,3.034,2.006,1.881,0.911,2.903,2.059,110.0,1004.0
2015-04-25,Helsinki,Finland,25.0001,60.1667,[24.5001 59.6667 25.5001 60.6667],2.034,0.85,3.051,2.072,1.888,0.898,2.974,2.048,107.0,1060.0
2015-04-26,Helsinki,Finland,25.0001,60.1667,[24.5001 59.6667 25.5001 60.6667],1.926,0.85,2.888,1.982,1.833,0.843,2.801,2.025,121.0,1106.0
2015-04-27,Helsinki,Finland,25.0001,60.1667,[24.5001 59.6667 25.5001 60.6667],1.926,0.858,2.984,2.029,1.796,0.797,2.801,1.965,154.0,1129.0
2015-04-28,Helsinki,Finland,25.0001,60.1667,[24.5001 59.6667 25.5001 60.6667],1.921,0.858,2.862,2.007,1.837,0.831,2.844,1.96,129.0,1171.0
2015-04-29,Helsinki,Finland,25.0001,60.1667,[24.5001 59.6667 25.5001 60.6667],1.943,0.85,2.888,2.08,1.785,0.859,2.764,1.918,115.0,1193.0
2015-04-30,Helsinki,Finland,25.0001,60.1667,[24.5001 59.6667 25.5001 60.6667],1.963,0.935,2.888,2.078,1.776,0.889,2.72,1.925,126.0,1251.0
2015-05-01,Helsinki,Finland,25.0001,60.1667,[24.5001 59.6667 25.5001 60.6667],1.963,0.922,2.888,2.07,1.791,0.882,2.66,1.872,129.0,1333.0
2015-05-02,Helsinki,Finland,25.0001,60.1667,[24.5001 59.6667 25.5001 60.6667],1.584,0.865,2.792,1.924,1.653,0.775,2.594,1.79,139.0,1367.0
2015-05-03,Helsinki,Finland,25.0001,60.1667,[24.5001 59.6667 25.5001 60.6667],1.544,0.922,2.792,1.87,1.552,0.76,2.535,1.735,121.0,1426.0
2015-05-04,Helsinki,Finland,25.0001,60.1667,[24.5001 59.6667 25.5001 60.6667],1.722,0.951,2.696,1.869,1.591,0.788,2.515,1.742,136.0,1435.0
2015-05-05,Helsinki,Finland,25.0001,60.1667,[24.5001 59.6667 25.5001 60.6667],1.722,0.951,2.696,1.871,1.567,0.754,2.5,1.711,135.0,1439.0
2015-05-06,Helsinki,Finland,25.0001,60.1667,[24.5001 59.6667 25.5001 60.6667],1.584,0.947,2.519,1.801,1.494,0.774,2.411,1.678,129.0,1433.0
2015-05-07,Helsinki,Finland,25.0001,60.1667,[24.5001 59.6667 25.5001 60.6667],1.584,0.951,2.532,1.81,1.469,0.765,2.318,1.619,131.0,1448.0
2015-05-08,Helsinki,Finland,25.0001,60.1667,[24.5001 59.6667 25.5001 60.6667],1.521,0.922,2.288,1.716,1.447,0.775,2.242,1.583,126.0,1398.0
2015-05-09,Helsinki,Finland,25.0001,60.1667,[24.5001 59.6667 25.5001 60.6667],1.631,1.02,2.308,1.774,1.464,0.793,2.258,1.58,135.0,1415.0
2015-05-10,Helsinki,Finland,25.0001,60.1667,[24.5001 59.6667 25.5001 60.6667],1.584,0.922,2.308,1.71,1.456,0.786,2.241,1.566,147.0,1418.0
2015-05-11,Helsinki,Finland,25.0001,60.1667,[24.5001 59.6667 25.5001 60.6667],1.745,0.922,2.399,1.77,1.423,0.756,2.223,1.537,134.0,1408.0
2015-05-12,Helsinki,Finland,25.0001,60.1667,[24.5001 59.6667 25.5001 60.6667],1.592,0.737,2.313,1.656,1.435,0.757,2.195,1.505,116.0,1444.0
2015-05-13,Helsinki,Finland,25.0001,60.1667,[24.5001 59.6667 25.5001 60.6667],1.561,0.722,2.308,1.582,1.403,0.744,2.101,1.45,145.0,1412.0
2015-05-14,Helsinki,Finland,25.0001,60.1667,[24.5001 59.6667 25.5001 60.6667],1.561,0.722,2.308,1.582,1.377,0.743,2.11,1.46,145.0,1433.0
2015-05-15,Helsinki,Finland,25.0001,60.1667,[24.5001 59.6667 25.5001 60.6667],1.468,0.553,2.272,1.506,1.389,0.694,2.154,1.466,160.0,1403.0
2015-05-16,Helsinki,Finland,25.0001,60.1667,[24.5001 59.6667 25.5001 60.6667],1.452,0.496,2.252,1.481,1.355,0.657,2.18,1.46,164.0,1438.0
2015-05-17,Helsinki,Finland,25.0001,60.1667,[24.5001 59.6667 25.5001 60.6667],1.646,0.496,2.308,1.546,1.421,0.702,2.192,1.493,153.0,1365.0
2015-05-18,Helsinki,Finland,25.0001,60.1667,[24.5001 59.6667 25.5001 60.6667],1.771,0.553,2.308,1.547,1.477,0.734,2.242,1.514,139.0,1255.0
2015-05-19,Helsinki,Finland,25.0001,60.1667,[24.5001 59.6667 25.5001 60.6667],1.646,0.481,2.399,1.57,1.432,0.715,2.216,1.503,127.0,1252.0
2015-05-20,Helsinki,Finland,25.0001,60.1667,[24.5001 59.6667 25.5001 60.6667],2.051,0.831,2.777,1.882,1.494,0.76,2.325,1.56,169.0,1254.0
2015-05-21,Helsinki,Finland,25.0001,60.1667,[24.5001 59.6667 25.5001 60.6667],1.961,0.964,2.802,1.888,1.439,0.751,2.284,1.525,185.0,1277.0
2015-05-22,Helsinki,Finland,25.0001,60.1667,[24.5001 59.6667 25.5001 60.6667],1.955,0.945,2.804,1.884,1.461,0.748,2.296,1.543,186.0,1286.0
2015-05-23,Helsinki,Finland,25.0001,60.1667,[24.5001 59.6667 25.5001 60.6667],1.823,0.765,2.771,1.736,1.403,0.683,2.284,1.491,186.0,1319.0
2015-05-24,Helsinki,Finland,25.0001,60.1667,[24.5001 59.6667 25.5001 60.6667],1.789,0.722,2.786,1.755,1.412,0.651,2.303,1.482,190.0,1290.0
2015-05-25,Helsinki,Finland,25.0001,60.1667,[24.5001 59.6667 25.5001 60.6667],1.817,0.84,2.786,1.811,1.419,0.702,2.311,1.5,178.0,1311.0
2015-05-26,Helsinki,Finland,25.0001,60.1667,[24.5001 59.6667 25.5001 60.6667],1.95,0.945,2.917,1.921,1.488,0.787,2.388,1.549,191.0,1314.0
2015-05-27,Helsinki,Finland,25.0001,60.1667,[24.5001 59.6667 25.5001 60.6667],1.843,1.0,2.804,1.908,1.464,0.773,2.342,1.555,190.0,1306.0
2015-05-28,Helsinki,Finland,25.0001,60.1667,[24.5001 59.6667 25.5001 60.6667],1.787,1.008,2.802,1.938,1.477,0.815,2.332,1.561,177.0,1343.0
2015-05-29,Helsinki,Finland,25.0001,60.1667,[24.5001 59.6667 25.5001 60.6667],1.774,0.955,2.798,1.885,1.463,0.795,2.299,1.559,197.0,1314.0
2015-05-30,Helsinki,Finland,25.0001,60.1667,[24.5001 59.6667 25.5001 60.6667],1.843,0.982,2.79,1.922,1.439,0.799,2.25,1.531,178.0,1332.0
2015-05-31,Helsinki,Finland,25.0001,60.1667,[24.5001 59.6667 25.5001 60.6667],1.781,0.955,2.777,1.861,1.387,0.748,2.15,1.462,192.0,1300.0
2015-06-01,Helsinki,Finland,25.0001,60.1667,[24.5001 59.6667 25.5001 60.6667],1.73,0.875,2.777,1.813,1.386,0.694,2.149,1.442,196.0,1355.0
2015-06-02,Helsinki,Finland,25.0001,60.1667,[24.5001 59.6667 25.5001 60.6667],1.758,0.875,2.777,1.803,1.413,0.682,2.215,1.455,202.0,1438.0
2015-06-03,Helsinki,Finland,25.0001,60.1667,[24.5001 59.6667 25.5001 60.6667],1.666,0.868,2.747,1.764,1.317,0.63,2.158,1.403,201.0,1488.0
2015-06-04,Helsinki,Finland,25.0001,60.1667,[24.5001 59.6667 25.5001 60.6667],1.265,0.372,2.144,1.412,1.245,0.515,2.049,1.335,175.0,1529.0
2015-06-05,Helsinki,Finland,25.0001,60.1667,[24.5001 59.6667 25.5001 60.6667],1.265,0.372,1.99,1.373,1.283,0.522,2.105,1.338,191.0,1493.0
2015-06-06,Helsinki,Finland,25.0001,60.1667,[24.5001 59.6667 25.5001 60.6667],1.265,0.342,1.96,1.334,1.297,0.469,2.111,1.335,202.0,1480.0
2015-06-07,Helsinki,Finland,25.0001,60.1667,[24.5001 59.6667 25.5001 60.6667],1.281,0.462,2.139,1.414,1.261,0.493,2.159,1.332,191.0,1463.0
2015-06-08,Helsinki,Finland,25.0001,60.1667,[24.5001 59.6667 25.5001 60.6667],1.244,0.412,2.128,1.342,1.243,0.515,2.086,1.324,177.0,1454.0
2015-06-09,Helsinki,Finland,25.0001,60.1667,[24.5001 59.6667 25.5001 60.6667],1.244,0.427,2.139,1.383,1.251,0.519,2.06,1.327,182.0,1398.0
2015-06-10,Helsinki,Finland,25.0001,60.1667,[24.5001 59.6667 25.5001 60.6667],1.105,0.412,1.822,1.181,1.215,0.491,2.011,1.264,178.0,1412.0
2015-06-11,Helsinki,Finland,25.0001,60.1667,[24.5001 59.6667 25.5001 60.6667],1.063,0.372,1.809,1.148,1.179,0.455,2.015,1.243,164.0,1412.0
2015-06-12,Helsinki,Finland,25.0001,60.1667,[24.5001 59.6667 25.5001 60.6667],1.063,0.372,1.822,1.155,1.116,0.423,1.988,1.234,149.0,1402.0
2015-06-13,Helsinki,Finland,25.0001,60.1667,[24.5001 59.6667 25.5001 60.6667],1.063,0.238,1.822,1.13,1.15,0.417,2.003,1.249,129.0,1433.0
2015-06-14,Helsinki,Finland,25.0001,60.1667,[24.5001 59.6667 25.5001 60.6667],1.063,0.372,1.706,1.119,1.188,0.41,1.992,1.25,142.0,1405.0
2015-06-15,Helsinki,Finland,25.0001,60.1667,[24.5001 59.6667 25.5001 60.6667],1.105,0.372,1.822,1.15,1.191,0.436,2.041,1.277,122.0,1426.0
2015-06-16,Helsinki,Finland,25.0001,60.1667,[24.5001 59.6667 25.5001 60.6667],1.282,0.412,1.919,1.354,1.229,0.448,2.042,1.312,132.0,1395.0
2015-06-17,Helsinki,Finland,25.0001,60.1667,[24.5001 59.6667 25.5001 60.6667],1.282,0.421,1.919,1.358,1.206,0.439,2.051,1.278,126.0,1431.0
2015-06-18,Helsinki,Finland,25.0001,60.1667,[24.5001 59.6667 25.5001 60.6667],1.277,0.412,1.919,1.349,1.261,0.471,2.065,1.314,124.0,1355.0
2015-06-19,Helsinki,Finland,25.0001,60.1667,[24.5001 59.6667 25.5001 60.6667],1.296,0.534,2.139,1.503,1.224,0.46,2.062,1.287,108.0,1244.0
2015-06-20,Helsinki,Finland,25.0001,60.1667,[24.5001 59.6667 25.5001 60.6667],1.282,0.605,2.139,1.507,1.206,0.453,2.044,1.288,87.0,1261.0